GFSFLT2_prec_cloud_276.txt.gz
Cloud_Cover
94 76 73 95 4 0 0 0 1 62 7 5 1 0 28 84 38 60 85 0 0 0 0 0 0 0 0 5 5 1 5 0
54 39 100 97 36 0 0 0 0 11 1 1 7 5 8 100 100 94 10 0 0 0 0 0 0 0 0 0 0 2 0 10
9 71 25 53 0 0 0 0 0 2 0 0 0 4 0 80 100 95 1 3 85 5 0 0 0 0 0 0 0 0 0 2
0 1 3 0 0 0 0 0 0 0 0 0 0 0 0 0 0 6 96 4 11 35 0 0 0 0 0 0 0 0 0 0
0 0 0 0 0 0 0 0 0 0 0 0 0 0 0 0 0 0 2 6 8 0 0 0 0 0 0 0 0 0 0 0
0 0 0 0 0 0 0 0 0 0 0 0 0 0 0 0 0 4 70 34 5 0 0 0 0 0 90 90 61 86 29 1
0 0 0 0 0 0 0 0 0 0 0 0 0 0 0 0 0 5 5 1 0 0 2 19 16 5 14 8 5 30 50 3
0 0 0 0 0 0 0 0 0 0 0 0 0 0 0 0 0 0 0 0 0 0 4 43 5 66 100 100 56 54 100 98
0 0 0 0 0 0 0 0 0 0 0 0 0 0 0 0 0 0 0 5 0 1 8 9 46 100 100 100 100 100 100 100
0 0 0 0 0 0 0 0 0 0 0 0 0 0 0 0 0 0 0 0 1 5 86 100 100 100 100 100 100 100 100 100
0 0 0 0 0 0 0 0 0 0 0 0 0 0 0 2 30 98 100 96 100 93 100 60 89 100 100 100 100 100 100 100
0 0 0 0 0 0 0 0 0 0 0 0 0 0 0 0 0 4 5 9 100 100 100 100 99 100 100 100 100 100 100 100
0 0 0 0 0 0 0 0 0 0 0 0 0 2 3 0 0 0 4 5 11 29 100 100 100 100 100 100 100 100 100 100
0 0 0 0 0 0 0 0 0 0 0 0 0 1 1 1 37 97 9 72 96 23 98 100 100 100 100 100 100 100 100 100
3 0 0 0 0 0 0 0 0 0 0 0 0 0 11 69 99 77 100 100 45 92 85 100 100 100 44 100 100 100 100 100
0 0 0 0 0 0 0 0 0 0 0 0 0 0 40 51 39 98 100 100 100 100 94 100 100 90 61 100 100 100 100 100
0 0 0 0 0 0 0 0 0 0 0 0 0 0 6 40 51 100 100 100 100 100 46 99 100 100 100 100 100 100 100 100
0 0 0 0 0 0 0 0 0 0 0 0 0 1 52 32 100 100 100 100 100 100 100 100 100 100 100 100 100 100 100 100
2 4 5 2 0 0 0 0 0 0 0 10 50 24 18 91 95 100 99 5 4 19 25 60 100 100 100 100 100 100 100 100

GFSFLT2_prec_cloud_279.txt.gz
Cloud_Cover
5 4 24 89 6 54 5 0 0 1 1 5 42 97 64 14 5 6 56 60 91 1 0 0 0 0 0 0 1 4 4 5
5 4 16 3 78 2 0 0 0 0 0 0 0 0 0 0 2 4 10 17 5 4 0 0 0 0 0 0 0 0 0 0
5 10 5 21 2 0 0 0 0 0 0 0 0 0 0 0 0 0 74 29 40 26 54 0 0 0 0 0 0 0 0 0
0 3 4 0 0 0 0 0 0 0 0 0 0 0 0 0 0 0 0 0 1 0 0 0 0 0 0 0 0 0 0 3
0 0 0 0 0 0 0 0 0 0 0 0 0 0 0 0 0 0 0 0 0 0 0 0 0 0 0 1 0 1 5 18
0 0 0 0 0 0 0 0 0 0 0 0 0 0 0 0 0 0 0 0 0 0 0 0 5 11 8 4 3 5 5 3
0 0 0 0 0 0 0 0 0 0 0 0 0 0 0 0 0 0 0 0 1 1 4 3 5 4 16 15 6 60 29 98
0 0 0 0 0 0 0 0 0 0 0 0 0 0 0 0 0 0 0 16 32 5 100 100 91 10 6 9 100 100 100 100
0 0 0 0 0 0 0 0 0 0 0 0 0 0 0 0 0 0 0 5 10 100 100 96 9 53 67 100 100 100 100 100
0 0 0 0 0 0 0 0 0 0 0 0 0 0 0 0 0 0 0 4 100 93 42 57 21 32 76 100 100 100 100 100
0 0 0 0 0 0 0 0 0 0 0 0 0 0 0 3 3 5 19 27 5 2 5 5 5 91 56 81 100 99 100 100
0 0 0 0 0 0 0 0 0 0 0 0 3 4 5 22 44 27 86 61 54 80 31 18 30 100 25 56 100 100 100 100
0 0 0 0 0 0 0 0 0 0 0 0 0 0 2 14 60 87 39 44 6 9 58 51 87 100 38 74 100 100 100 100
0 0 0 0 0 0 0 0 0 0 0 0 0 6 37 45 0 0 0 0 14 66 57 19 94 100 100 100 100 97 73 44
0 0 0 0 0 0 0 0 0 0 0 0 0 64 48 56 28 36 25 40 100 100 26 24 60 99 100 100 100 45 31 40
0 0 0 0 0 0 0 0 0 0 3 0 59 12 28 24 55 5 13 18 49 83 31 54 12 38 94 99 100 100 98 58
0 0 0 0 0 0 0 0 0 0 0 0 1 16 1 41 87 8 24 14 3 34 64 37 3 2 1 50 100 100 100 100
0 0 0 0 0 0 0 0 0 0 9 5 0 13 3 92 100 15 18 5 54 100 32 43 22 75 11 85 100 100 100 100
0 0 0 0 0 0 0 0 0 2 6 44 38 8 35 100 77 62 14 33 83 99 97 100 89 100 99 97 100 100 100 100

GFSFLT2_prec_cloud_285.txt.gz
Cloud_Cover
4 2 3 2 3 0 0 0 0 0 0 0 0 0 0 0 0 0 0 0 0 0 0 0 0 5 0 0 0 0 0 82
0 0 0 0 1 2 0 0 0 0 0 0 0 0 0 0 0 0 0 0 0 0 0 0 0 0 0 0 0 0 0 2
0 0 0 3 0 0 0 0 0 0 0 0 0 0 0 0 0 0 0 0 0 0 0 0 0 0 0 0 0 0 0 0
0 0 0 0 0 0 0 0 0 0 0 0 0 0 0 0 0 0 0 0 0 0 0 0 0 0 0 0 0 0 0 0
0 0 0 0 0 0 0 0 0 0 0 0 0 0 0 0 0 0 0 0 0 0 0 0 0 2 0 0 0 0 0 0
0 0 0 0 0 0 0 0 0 0 0 0 0 0 0 0 0 0 0 0 0 0 0 0 0 2 84 1 0 0 0 0
0 4 0 0 0 0 0 0 0 0 0 0 0 0 0 0 0 0 0 0 0 0 0 0 0 0 5 5 2 0 0 0
0 0 1 0 0 0 0 0 0 0 0 0 0 0 0 0 0 0 0 0 0 0 0 0 2 0 4 1 1 3 1 7
0 0 0 0 0 0 0 0 0 0 0 0 0 0 0 0 0 0 0 0 0 0 5 5 5 5 5 8 5 97 79 99
0 0 0 0 0 0 0 0 0 0 0 0 0 0 0 0 0 0 0 0 0 2 2 5 4 5 5 11 57 97 100 74
0 0 0 0 0 0 0 0 0 0 0 0 0 0 0 0 0 0 0 0 0 0 6 20 12 29 55 100 100 100 92 60
0 0 0 0 0 0 0 0 0 0 0 0 0 0 0 0 0 0 0 0 2 2 10 41 93 70 98 100 100 100 100 100
0 0 0 0 0 0 0 0 0 0 0 0 0 0 0 0 0 0 0 11 33 99 100 100 86 50 38 75 100 100 100 100
0 0 0 0 0 0 0 0 0 0 0 0 0 0 0 0 0 0 1 63 53 56 62 77 56 60 65 36 42 85 100 75
0 0 0 0 0 0 0 0 0 0 0 0 0 0 0 0 0 0 14 100 20 4 9 32 51 94 4 84 96 62 0 0
0 0 0 0 0 0 0 0 0 0 0 0 0 0 0 0 0 0 0 0 0 0 0 0 0 0 0 0 21 59 35 18
0 0 0 0 0 0 0 0 0 0 0 0 0 0 0 0 0 0 0 0 0 0 6 56 86 60 19 6 15 47 5 49
0 0 0 0 0 0 0 0 0 0 0 0 0 2 3 0 18 12 17 42 73 98 100 100 100 97 100 65 24 12 6 100
0 0 0 0 0 0 0 0 0 0 0 0 3 13 70 99 100 100 100 100 67 72 28 32 24 5 5 59 22 2 45 100

GFSFLT2_prec_cloud_291.txt.gz
Cloud_Cover
5 1 1 0 16 19 30 0 100 19 6 7 0 1 2 1 5 4 0 0 0 0 0 0 0 0 0 0 0 0 0 0
4 0 0 98 21 70 100 37 69 2 100 100 34 4 0 2 16 5 0 0 0 0 0 0 0 0 0 0 0 0 0 0
0 0 3 2 5 100 100 93 20 66 14 0 0 5 55 5 5 5 1 0 0 0 0 0 0 0 0 0 5 0 0 0
0 2 25 16 4 5 98 100 0 42 12 0 0 0 0 1 0 0 0 0 0 0 0 0 0 0 0 0 0 0 0 0
26 3 0 0 4 6 100 100 0 75 42 3 0 0 0 0 0 0 0 0 0 0 0 0 0 0 0 0 0 0 0 0
69 5 3 0 5 5 23 25 3 4 1 0 0 0 0 0 0 0 0 0 0 0 0 0 0 0 0 0 3 4 5 5
100 92 67 5 4 0 5 100 100 64 3 5 0 0 0 0 0 0 0 0 0 0 0 0 0 0 0 0 0 5 11 37
100 11 0 5 5 0 0 4 3 67 66 0 0 0 0 0 0 0 0 0 0 0 0 0 0 0 0 0 1 16 24 83
5 5 0 0 4 0 0 0 1 6 6 0 0 0 0 0 0 0 0 0 0 0 0 0 0 0 0 6 10 52 93 99
6 5 10 1 5 2 3 0 0 5 0 0 0 0 0 0 0 0 0 0 0 0 0 0 0 1 19 58 23 42 64 73
3 5 61 6 2 0 0 0 0 2 0 0 0 0 0 0 0 0 0 0 0 0 0 0 10 27 47 90 57 61 70 54
5 5 19 43 4 0 0 5 0 0 0 0 0 4 4 0 0 0 0 0 0 0 0 3 100 100 77 82 98 100 84 99
22 56 28 56 56 0 0 0 0 0 0 0 0 11 2 0 0 0 0 0 0 0 2 100 100 98 85 58 95 96 100 100
48 18 13 5 0 0 0 0 0 0 0 0 0 0 0 0 0 0 0 0 0 0 73 7 12 13 26 56 85 85 100 93
86 63 4 55 2 0 0 0 0 0 0 0 0 0 0 0 0 0 0 0 0 0 0 1 8 17 25 78 98 100 99 28
36 36 100 6 0 0 0 0 0 0 0 0 0 0 0 0 0 0 0 0 0 0 5 8 10 18 96 95 97 31 79 22
44 56 4 2 0 0 0 0 0 0 0 0 0 0 0 0 0 0 0 0 2 3 2 11 67 74 98 78 100 56 47 18
98 99 3 0 0 0 0 0 0 0 0 0 0 0 0 0 0 0 1 2 0 6 10 100 89 25 50 6 64 82 21 0
6 5 0 0 0 0 0 0 0 0 0 0 0 0 0 0 5 0 0 0 9 23 27 16 5 13 21 22 17 12 32 14